sat.trackr.live / text

‹ back to catalog

STARLINK-4024

NORAD 52599 · 2022-052B

PAYLOAD ACTIVE UNKNOWN

§ Identity

Operator
Country
US
Launch date
2022-05-14
Launch site
AFETR
Launch vehicle
Mass (kg)
RCS (m²)

Purposes: comms

External: N2YO · Heavens-Above · Gunter

§ Orbital elements

Epoch: 2026-05-25T02:56:34.672992Z

Period
95.44 min
Inclination
53.2148°
Eccentricity
0.0001239
Mean motion
15.08834649 rev/d
Perigee alt
538.9 km
Apogee alt
540.6 km
Semi-major
6,917.9 km
B*
9.6930e-5
RAAN
296.1044°
Arg perigee
92.3013°
Mean anomaly
267.8121°
Rev number
22,319

§ Raw data

STARLINK-40241 52599U 22052B   26145.12262353  .00001255  00000+0  96930-4 0  99962 52599  53.2148 296.1044 0001239  92.3013 267.8121 15.08834649223196

JSON: /api/v1/satellites/52599 · /tle

For live sub-satellite position, see the globe view (requires WebGL).

§ Visibility from observer

Set your observer location to see the next 7 days of passes ≥ 10°. The values pass through the URL so the page stays shareable.

No JS? Fill the form by hand. The geolocation button needs JavaScript.